| time (UTC) | temp F | wind direction | speed MPH | gust MPH | rain 1hr in | rain 24hr in | rain mn in | humidity % | barometer mb |
| 20260906090919 | 68 | 130 | 2.0 | 4.0 | 0.00 | 0.00 | 0.00 | 53 | 994.7 |
| 20260906090413 | 69 | 121 | 2.0 | 6.0 | 0.00 | 0.00 | 0.00 | 53 | 994.9 |
| 20260906085908 | 69 | 81 | 2.0 | 7.0 | 0.00 | 0.00 | 0.00 | 53 | 994.8 |
| 20260906085404 | 69 | 117 | 2.0 | 7.0 | 0.00 | 0.00 | 0.00 | 53 | 994.8 |
| 20260906084349 | 69 | 118 | 2.0 | 7.0 | 0.00 | 0.00 | 0.00 | 53 | 994.6 |
| 20260906083843 | 69 | 97 | 2.0 | 5.0 | 0.00 | 0.00 | 0.00 | 53 | 994.5 |
| 20260906083337 | 69 | 128 | 3.0 | 6.0 | 0.00 | 0.00 | 0.00 | 53 | 994.5 |
| 20260906082831 | 69 | 128 | 2.0 | 6.0 | 0.00 | 0.00 | 0.00 | 53 | 994.7 |
| 20260906082325 | 69 | 132 | 1.0 | 4.0 | 0.00 | 0.00 | 0.00 | 53 | 994.7 |
| 20260906081819 | 69 | 140 | 2.0 | 6.0 | 0.00 | 0.00 | 0.00 | 53 | 994.6 |
| 20260906081313 | 69 | 114 | 2.0 | 6.0 | 0.00 | 0.00 | 0.00 | 53 | 994.6 |
| 20260906080301 | 70 | 119 | 1.0 | 6.0 | 0.00 | 0.00 | 0.00 | 53 | 994.7 |
| 20260906075756 | 70 | 148 | 1.0 | 6.0 | 0.00 | 0.00 | 0.00 | 53 | 994.9 |
| 20260906074744 | 70 | 103 | 2.0 | 6.0 | 0.00 | 0.00 | 0.00 | 53 | 994.9 |
| 20260906074237 | 70 | 124 | 1.0 | 6.0 | 0.00 | 0.00 | 0.00 | 53 | 994.8 |
| 20260906073731 | 70 | 104 | 2.0 | 4.0 | 0.00 | 0.00 | 0.00 | 53 | 994.8 |
| 20260906073225 | 70 | 104 | 2.0 | 6.0 | 0.00 | 0.00 | 0.00 | 52 | 994.8 |
| 20260906072720 | 70 | 79 | 2.0 | 8.0 | 0.00 | 0.00 | 0.00 | 53 | 994.7 |
| 20260906072213 | 70 | 133 | 3.0 | 8.0 | 0.00 | 0.00 | 0.00 | 52 | 994.7 |
| 20260906071202 | 70 | 74 | 3.0 | 9.0 | 0.00 | 0.00 | 0.00 | 53 | 994.6 |
| 20260906070656 | 71 | 119 | 3.0 | 7.0 | 0.00 | 0.00 | 0.00 | 52 | 994.7 |
| 20260906070150 | 71 | 122 | 4.0 | 9.0 | 0.00 | 0.00 | 0.00 | 52 | 994.8 |
| 20260906065644 | 71 | 101 | 4.0 | 9.0 | 0.00 | 0.00 | 0.00 | 52 | 994.9 |
| 20260906064632 | 71 | 111 | 3.0 | 7.0 | 0.00 | 0.00 | 0.00 | 51 | 994.9 |
| 20260906063620 | 71 | 114 | 3.0 | 8.0 | 0.00 | 0.00 | 0.00 | 51 | 995.0 |
| 20260906063114 | 72 | 120 | 4.0 | 10.0 | 0.00 | 0.00 | 0.00 | 51 | 995.0 |
| 20260906062608 | 72 | 125 | 4.0 | 10.0 | 0.00 | 0.00 | 0.00 | 50 | 995.1 |
| 20260906061601 | 72 | 142 | 4.0 | 11.0 | 0.00 | 0.00 | 0.00 | 50 | 995.2 |
| 20260906061059 | 72 | 91 | 4.0 | 11.0 | 0.00 | 0.00 | 0.00 | 49 | 995.1 |
| 20260906060559 | 72 | 122 | 5.0 | 11.0 | 0.00 | 0.00 | 0.00 | 50 | 995.2 |
| 20260906055600 | 73 | 109 | 5.0 | 9.0 | 0.00 | 0.00 | 0.00 | 50 | 995.1 |
| 20260906055059 | 73 | 120 | 5.0 | 12.0 | 0.00 | 0.00 | 0.00 | 51 | 995.1 |
| 20260906054557 | 73 | 114 | 4.0 | 12.0 | 0.00 | 0.00 | 0.00 | 51 | 995.1 |
| 20260906053055 | 73 | 105 | 3.0 | 9.0 | 0.00 | 0.00 | 0.00 | 52 | 995.1 |
| 20260906051555 | 74 | 129 | 4.0 | 8.0 | 0.00 | 0.00 | 0.00 | 51 | 994.9 |
| 20260906051055 | 74 | 79 | 3.0 | 8.0 | 0.00 | 0.00 | 0.00 | 51 | 994.8 |
| 20260906050556 | 74 | 95 | 1.0 | 7.0 | 0.00 | 0.00 | 0.00 | 51 | 994.8 |
| 20260906050054 | 74 | 80 | 2.0 | 6.0 | 0.00 | 0.00 | 0.00 | 50 | 994.7 |
| 20260906045553 | 74 | 100 | 1.0 | 6.0 | 0.00 | 0.00 | 0.00 | 50 | 994.8 |
| 20260906045053 | 74 | 92 | 1.0 | 6.0 | 0.00 | 0.00 | 0.00 | 50 | 994.7 |
| 20260906044547 | 74 | 53 | 2.0 | 5.0 | 0.00 | 0.00 | 0.00 | 50 | 994.8 |
| 20260906044041 | 75 | 48 | 2.0 | 5.0 | 0.00 | 0.00 | 0.00 | 50 | 994.7 |
| 20260906043535 | 75 | 44 | 2.0 | 6.0 | 0.00 | 0.00 | 0.00 | 49 | 994.7 |
| 20260906043029 | 75 | 24 | 2.0 | 6.0 | 0.00 | 0.00 | 0.00 | 49 | 994.9 |
| 20260906042523 | 75 | 36 | 1.0 | 4.0 | 0.00 | 0.00 | 0.00 | 49 | 994.9 |
| 20260906042017 | 75 | 49 | 2.0 | 8.0 | 0.00 | 0.00 | 0.00 | 49 | 994.8 |
| 20260906041511 | 75 | 44 | 2.0 | 8.0 | 0.00 | 0.00 | 0.00 | 49 | 994.7 |
| 20260906041005 | 75 | 43 | 2.0 | 6.0 | 0.00 | 0.00 | 0.00 | 49 | 994.4 |
| 20260906040500 | 75 | 59 | 2.0 | 6.0 | 0.00 | 0.00 | 0.00 | 49 | 994.5 |
| 20260906035953 | 75 | 83 | 2.0 | 6.0 | 0.00 | 0.00 | 0.00 | 48 | 994.4 |
| 20260906035447 | 75 | 32 | 2.0 | 6.0 | 0.00 | 0.00 | 0.00 | 48 | 994.3 |
| 20260906034941 | 75 | 19 | 1.0 | 5.0 | 0.00 | 0.00 | 0.00 | 48 | 994.1 |
| 20260906034435 | 76 | 90 | 1.0 | 5.0 | 0.00 | 0.00 | 0.00 | 48 | 993.8 |
| 20260906033929 | 76 | 35 | 2.0 | 5.0 | 0.00 | 0.00 | 0.00 | 48 | 993.8 |
| 20260906033424 | 76 | 30 | 2.0 | 6.0 | 0.00 | 0.00 | 0.00 | 48 | 993.8 |
| 20260906032917 | 76 | 75 | 2.0 | 6.0 | 0.00 | 0.00 | 0.00 | 47 | 993.8 |
| 20260906032411 | 76 | 38 | 2.0 | 5.0 | 0.00 | 0.00 | 0.00 | 47 | 993.8 |
| 20260906031905 | 76 | 33 | 2.0 | 5.0 | 0.00 | 0.00 | 0.00 | 47 | 993.7 |
| 20260906031401 | 76 | 32 | 1.0 | 8.0 | 0.00 | 0.00 | 0.00 | 47 | 993.6 |
| 20260906030853 | 76 | 68 | 2.0 | 8.0 | 0.00 | 0.00 | 0.00 | 47 | 993.7 |
| 20260906030347 | 76 | 34 | 3.0 | 8.0 | 0.00 | 0.00 | 0.00 | 47 | 993.5 |
| 20260906025841 | 76 | 38 | 2.0 | 8.0 | 0.00 | 0.00 | 0.00 | 47 | 993.5 |
| 20260906025335 | 76 | 53 | 2.0 | 4.0 | 0.00 | 0.00 | 0.00 | 47 | 993.4 |
| 20260906024324 | 76 | 32 | 2.0 | 5.0 | 0.00 | 0.00 | 0.00 | 47 | 993.6 |
| 20260906022805 | 77 | 51 | 1.0 | 5.0 | 0.00 | 0.00 | 0.00 | 46 | 993.3 |
| 20260906022300 | 77 | 38 | 1.0 | 5.0 | 0.00 | 0.00 | 0.00 | 46 | 993.3 |
| 20260906021248 | 77 | 71 | 1.0 | 3.0 | 0.00 | 0.00 | 0.00 | 47 | 993.1 |
| 20260906020742 | 77 | 63 | 1.0 | 4.0 | 0.00 | 0.00 | 0.00 | 46 | 992.9 |
| 20260906020235 | 77 | 124 | 2.0 | 4.0 | 0.00 | 0.00 | 0.00 | 46 | 992.8 |
| 20260906015223 | 77 | 126 | 2.0 | 4.0 | 0.00 | 0.00 | 0.00 | 47 | 992.7 |
| 20260906014719 | 77 | 82 | 1.0 | 4.0 | 0.00 | 0.00 | 0.00 | 46 | 992.8 |
| 20260906014220 | 77 | 51 | 1.0 | 6.0 | 0.00 | 0.00 | 0.00 | 46 | 992.6 |
| 20260906013720 | 77 | 53 | 1.0 | 6.0 | 0.00 | 0.00 | 0.00 | 46 | 992.6 |
| 20260906012719 | 78 | 76 | 1.0 | 6.0 | 0.00 | 0.00 | 0.00 | 46 | 992.5 |
| 20260906011719 | 78 | 91 | 1.0 | 5.0 | 0.00 | 0.00 | 0.00 | 46 | 992.3 |
| 20260906011217 | 78 | 111 | 1.0 | 5.0 | 0.00 | 0.00 | 0.00 | 46 | 992.2 |
| 20260906010715 | 78 | 77 | 1.0 | 3.0 | 0.00 | 0.00 | 0.00 | 46 | 992.2 |
| 20260906010213 | 78 | 103 | 2.0 | 7.0 | 0.00 | 0.00 | 0.00 | 46 | 992.1 |
| 20260906005711 | 78 | 100 | 3.0 | 8.0 | 0.00 | 0.00 | 0.00 | 46 | 992.0 |
| 20260906005209 | 78 | 96 | 2.0 | 8.0 | 0.00 | 0.00 | 0.00 | 45 | 992.1 |
| 20260906004708 | 78 | 104 | 2.0 | 6.0 | 0.00 | 0.00 | 0.00 | 45 | 992.0 |
| 20260906004207 | 78 | 82 | 2.0 | 5.0 | 0.00 | 0.00 | 0.00 | 45 | 992.1 |
| 20260906003705 | 78 | 74 | 2.0 | 5.0 | 0.00 | 0.00 | 0.00 | 45 | 992.1 |
| 20260906003205 | 79 | 62 | 2.0 | 6.0 | 0.00 | 0.00 | 0.00 | 44 | 992.1 |
| 20260906002703 | 79 | 74 | 2.0 | 6.0 | 0.00 | 0.00 | 0.00 | 44 | 992.3 |
| 20260906002203 | 79 | 46 | 2.0 | 6.0 | 0.00 | 0.00 | 0.00 | 44 | 992.3 |
| 20260906001703 | 79 | 80 | 2.0 | 6.0 | 0.00 | 0.00 | 0.00 | 43 | 992.4 |
| 20260906001157 | 79 | 90 | 2.0 | 6.0 | 0.00 | 0.00 | 0.00 | 43 | 992.3 |
| 20260906000651 | 79 | 105 | 2.0 | 6.0 | 0.00 | 0.00 | 0.00 | 43 | 992.4 |
| 20260905235639 | 79 | 26 | 2.0 | 6.0 | 0.00 | 0.00 | 0.00 | 42 | 992.5 |
| 20260905234627 | 79 | 96 | 3.0 | 8.0 | 0.00 | 0.00 | 0.00 | 42 | 992.4 |
| 20260905234127 | 80 | 68 | 3.0 | 9.0 | 0.00 | 0.00 | 0.00 | 42 | 992.4 |
| 20260905233627 | 80 | 88 | 3.0 | 9.0 | 0.00 | 0.00 | 0.00 | 42 | 992.3 |
| 20260905233127 | 80 | 28 | 2.0 | 9.0 | 0.00 | 0.00 | 0.00 | 42 | 992.4 |
| 20260905232627 | 80 | 23 | 2.0 | 9.0 | 0.00 | 0.00 | 0.00 | 41 | 992.5 |
| 20260905232127 | 80 | 55 | 3.0 | 9.0 | 0.00 | 0.00 | 0.00 | 41 | 992.5 |
| 20260905231627 | 80 | 47 | 4.0 | 10.0 | 0.00 | 0.01 | 0.00 | 41 | 992.4 |
| 20260905231127 | 80 | 92 | 4.0 | 10.0 | 0.00 | 0.01 | 0.00 | 40 | 992.4 |
| 20260905230627 | 80 | 133 | 4.0 | 14.0 | 0.00 | 0.01 | 0.00 | 40 | 992.5 |
| 20260905230127 | 80 | 128 | 5.0 | 14.0 | 0.00 | 0.01 | 0.00 | 40 | 992.5 |
| 20260905225623 | 81 | 117 | 4.0 | 11.0 | 0.00 | 0.01 | 0.00 | 39 | 992.4 |
| 20260905225124 | 81 | 103 | 3.0 | 10.0 | 0.00 | 0.01 | 0.00 | 39 | 992.5 |
| 20260905224622 | 82 | 41 | 3.0 | 13.0 | 0.00 | 0.01 | 0.00 | 38 | 992.4 |
| 20260905224123 | 82 | 36 | 4.0 | 13.0 | 0.00 | 0.01 | 0.00 | 39 | 992.5 |
| 20260905223623 | 82 | 25 | 4.0 | 15.0 | 0.00 | 0.01 | 0.00 | 39 | 992.5 |
| 20260905223123 | 83 | 68 | 3.0 | 15.0 | 0.00 | 0.01 | 0.00 | 38 | 992.5 |
| 20260905222622 | 82 | 62 | 4.0 | 11.0 | 0.00 | 0.01 | 0.00 | 38 | 992.4 |
| 20260905221623 | 82 | 49 | 5.0 | 10.0 | 0.00 | 0.01 | 0.00 | 39 | 992.2 |
| 20260905221123 | 83 | 91 | 4.0 | 11.0 | 0.00 | 0.01 | 0.00 | 39 | 992.3 |
| 20260905220623 | 83 | 88 | 5.0 | 15.0 | 0.00 | 0.01 | 0.00 | 38 | 992.3 |
| 20260905220124 | 83 | 53 | 5.0 | 15.0 | 0.00 | 0.01 | 0.00 | 38 | 992.5 |
| 20260905213623 | 83 | 111 | 4.0 | 10.0 | 0.00 | 0.01 | 0.00 | 38 | 992.4 |
| 20260905213123 | 83 | 45 | 4.0 | 12.0 | 0.00 | 0.01 | 0.00 | 38 | 992.3 |
| 20260905212110 | 84 | 13 | 3.0 | 11.0 | 0.00 | 0.01 | 0.00 | 37 | 992.1 |
| 20260905211058 | 83 | 11 | 3.0 | 8.0 | 0.00 | 0.01 | 0.00 | 38 | 992.1 |
| 20260905210552 | 83 | 107 | 3.0 | 8.0 | 0.00 | 0.01 | 0.00 | 38 | 992.3 |
| 20260905210051 | 83 | 28 | 4.0 | 10.0 | 0.00 | 0.01 | 0.00 | 38 | 992.3 |
| 20260905205050 | 84 | 22 | 2.0 | 12.0 | 0.00 | 0.01 | 0.00 | 38 | 992.1 |
| 20260905204550 | 83 | 77 | 2.0 | 9.0 | 0.00 | 0.01 | 0.00 | 39 | 992.2 |
| 20260905204051 | 83 | 128 | 4.0 | 11.0 | 0.00 | 0.01 | 0.00 | 40 | 992.2 |
| 20260905203551 | 84 | 326 | 4.0 | 11.0 | 0.00 | 0.01 | 0.00 | 39 | 992.1 |
| 20260905203049 | 84 | 42 | 3.0 | 10.0 | 0.00 | 0.01 | 0.00 | 38 | 992.2 |
| 20260905202549 | 84 | 55 | 3.0 | 9.0 | 0.00 | 0.01 | 0.00 | 39 | 992.0 |
| 20260905202048 | 84 | 20 | 2.0 | 8.0 | 0.00 | 0.01 | 0.00 | 39 | 992.1 |
| 20260905201548 | 84 | 35 | 3.0 | 8.0 | 0.00 | 0.01 | 0.00 | 40 | 992.5 |
| 20260905201049 | 84 | 44 | 3.0 | 8.0 | 0.00 | 0.01 | 0.00 | 39 | 992.6 |
| 20260905200550 | 84 | 34 | 3.0 | 8.0 | 0.00 | 0.01 | 0.00 | 40 | 992.5 |
| 20260905200048 | 83 | 70 | 3.0 | 8.0 | 0.00 | 0.01 | 0.00 | 40 | 992.5 |
| 20260905195548 | 83 | 71 | 3.0 | 8.0 | 0.00 | 0.01 | 0.00 | 41 | 992.6 |
| 20260905194049 | 81 | 306 | 3.0 | 8.0 | 0.00 | 0.01 | 0.00 | 43 | 992.6 |
| 20260905193543 | 81 | 51 | 3.0 | 8.0 | 0.00 | 0.01 | 0.00 | 44 | 992.8 |
| 20260905193037 | 81 | 15 | 3.0 | 8.0 | 0.00 | 0.01 | 0.00 | 44 | 992.9 |
| 20260905192530 | 81 | 76 | 3.0 | 8.0 | 0.00 | 0.01 | 0.00 | 45 | 992.8 |
| 20260905192025 | 81 | 82 | 3.0 | 7.0 | 0.00 | 0.01 | 0.00 | 45 | 992.7 |
| 20260905191519 | 81 | 105 | 2.0 | 6.0 | 0.00 | 0.01 | 0.00 | 44 | 992.7 |
| 20260905190506 | 80 | 5 | 2.0 | 4.0 | 0.00 | 0.01 | 0.00 | 45 | 992.8 |
| 20260905190001 | 80 | 80 | 3.0 | 8.0 | 0.00 | 0.01 | 0.00 | 46 | 992.9 |
| 20260905185454 | 80 | 33 | 3.0 | 8.0 | 0.00 | 0.01 | 0.00 | 46 | 993.0 |
| 20260905184442 | 80 | 5 | 2.0 | 8.0 | 0.00 | 0.01 | 0.00 | 46 | 993.1 |
| 20260905183936 | 80 | 40 | 2.0 | 8.0 | 0.00 | 0.01 | 0.00 | 46 | 993.0 |
| 20260905183430 | 80 | 42 | 2.0 | 7.0 | 0.00 | 0.01 | 0.00 | 46 | 993.1 |
| 20260905182924 | 79 | 113 | 3.0 | 11.0 | 0.00 | 0.01 | 0.00 | 47 | 993.0 |
| 20260905181912 | 80 | 61 | 3.0 | 7.0 | 0.00 | 0.01 | 0.00 | 46 | 992.9 |
| 20260905181406 | 79 | 86 | 3.0 | 8.0 | 0.00 | 0.01 | 0.00 | 46 | 992.8 |
| 20260905180354 | 79 | 88 | 3.0 | 8.0 | 0.00 | 0.01 | 0.00 | 47 | 992.9 |
| 20260905175848 | 79 | 88 | 4.0 | 8.0 | 0.00 | 0.01 | 0.00 | 47 | 992.9 |
| 20260905175342 | 79 | 107 | 3.0 | 8.0 | 0.00 | 0.01 | 0.00 | 46 | 992.8 |
| 20260905174836 | 80 | 102 | 3.0 | 9.0 | 0.00 | 0.01 | 0.00 | 46 | 992.9 |
| 20260905174333 | 79 | 62 | 3.0 | 9.0 | 0.00 | 0.01 | 0.00 | 47 | 992.9 |
| 20260905173833 | 79 | 56 | 2.0 | 10.0 | 0.00 | 0.01 | 0.00 | 47 | 993.2 |
| 20260905173332 | 79 | 100 | 3.0 | 10.0 | 0.00 | 0.01 | 0.00 | 47 | 993.1 |
| 20260905172832 | 79 | 82 | 4.0 | 10.0 | 0.00 | 0.01 | 0.00 | 47 | 993.0 |
| 20260905172330 | 79 | 84 | 3.0 | 9.0 | 0.00 | 0.01 | 0.00 | 47 | 993.1 |
| 20260905171828 | 79 | 41 | 4.0 | 9.0 | 0.00 | 0.01 | 0.00 | 47 | 993.1 |
| 20260905171328 | 80 | 57 | 4.0 | 9.0 | 0.00 | 0.01 | 0.00 | 46 | 993.2 |
| 20260905170826 | 80 | 34 | 3.0 | 8.0 | 0.00 | 0.01 | 0.00 | 46 | 993.3 |
| 20260905165826 | 80 | 118 | 3.0 | 9.0 | 0.00 | 0.01 | 0.00 | 45 | 993.4 |
| 20260905164825 | 81 | 36 | 2.0 | 6.0 | 0.00 | 0.02 | 0.00 | 45 | 993.5 |
| 20260905164324 | 80 | 86 | 2.0 | 6.0 | 0.00 | 0.02 | 0.00 | 45 | 993.4 |
| 20260905163322 | 80 | 84 | 3.0 | 9.0 | 0.00 | 0.02 | 0.00 | 45 | 993.3 |
| 20260905162822 | 80 | 108 | 3.0 | 9.0 | 0.00 | 0.02 | 0.00 | 46 | 993.4 |
| 20260905162322 | 80 | 44 | 3.0 | 8.0 | 0.00 | 0.02 | 0.00 | 46 | 993.4 |
| 20260905161822 | 80 | 138 | 4.0 | 8.0 | 0.00 | 0.02 | 0.00 | 45 | 993.4 |
| 20260905161323 | 80 | 45 | 4.0 | 11.0 | 0.00 | 0.02 | 0.00 | 45 | 993.5 |
| 20260905160817 | 80 | 54 | 3.0 | 11.0 | 0.00 | 0.02 | 0.00 | 45 | 993.5 |
| 20260905160311 | 80 | 78 | 3.0 | 9.0 | 0.00 | 0.02 | 0.00 | 45 | 993.3 |
| 20260905155804 | 80 | 90 | 4.0 | 10.0 | 0.00 | 0.02 | 0.00 | 45 | 993.4 |
| 20260905155258 | 80 | 69 | 4.0 | 10.0 | 0.00 | 0.02 | 0.00 | 44 | 993.2 |
| 20260905153234 | 81 | 107 | 4.0 | 10.0 | 0.00 | 0.02 | 0.00 | 43 | 993.0 |
| 20260905152728 | 82 | 108 | 3.0 | 9.0 | 0.00 | 0.02 | 0.00 | 43 | 992.9 |
| 20260905152222 | 81 | 139 | 2.0 | 5.0 | 0.00 | 0.02 | 0.00 | 43 | 992.9 |
| 20260905151719 | 81 | 50 | 2.0 | 4.0 | 0.00 | 0.02 | 0.00 | 43 | 992.8 |
| 20260905151218 | 80 | 81 | 2.0 | 6.0 | 0.00 | 0.02 | 0.00 | 44 | 992.7 |
| 20260905150718 | 80 | 117 | 3.0 | 10.0 | 0.00 | 0.02 | 0.00 | 44 | 992.7 |
| 20260905150218 | 80 | 38 | 4.0 | 10.0 | 0.00 | 0.02 | 0.00 | 44 | 992.6 |
| 20260905145718 | 80 | 38 | 3.0 | 11.0 | 0.00 | 0.02 | 0.00 | 43 | 992.5 |
| 20260905145218 | 80 | 5 | 2.0 | 11.0 | 0.00 | 0.02 | 0.00 | 43 | 992.6 |
| 20260905144718 | 79 | 62 | 2.0 | 5.0 | 0.00 | 0.02 | 0.00 | 44 | 992.5 |
| 20260905144218 | 79 | 54 | 2.0 | 8.0 | 0.00 | 0.02 | 0.00 | 45 | 992.4 |
| 20260905143716 | 78 | 42 | 2.0 | 9.0 | 0.00 | 0.02 | 0.00 | 45 | 992.4 |
| 20260905142216 | 78 | 0 | 2.0 | 6.0 | 0.00 | 0.02 | 0.00 | 46 | 992.5 |
| 20260905140712 | 77 | 355 | 3.0 | 6.0 | 0.00 | 0.02 | 0.00 | 47 | 992.1 |
| 20260905140212 | 77 | 24 | 2.0 | 6.0 | 0.00 | 0.02 | 0.00 | 47 | 992.1 |
| 20260905135713 | 76 | 23 | 1.0 | 4.0 | 0.00 | 0.02 | 0.00 | 47 | 992.0 |
| 20260905135212 | 76 | 346 | 0.0 | 4.0 | 0.00 | 0.02 | 0.00 | 48 | 992.0 |
| 20260905134712 | 75 | 341 | 0.0 | 2.0 | 0.00 | 0.02 | 0.00 | 48 | 991.9 |
| 20260905134211 | 75 | 68 | 1.0 | 2.0 | 0.00 | 0.02 | 0.00 | 50 | 991.8 |
| 20260905133212 | 74 | 78 | 0.0 | 3.0 | 0.00 | 0.02 | 0.00 | 52 | 991.6 |
| 20260905132712 | 74 | 45 | 0.0 | 3.0 | 0.00 | 0.02 | 0.00 | 52 | 991.5 |
| 20260905132207 | 74 | 35 | 0.0 | 3.0 | 0.00 | 0.02 | 0.00 | 52 | 991.5 |
| 20260905130707 | 73 | 19 | 1.0 | 3.0 | 0.00 | 0.02 | 0.00 | 52 | 991.7 |
| 20260905125208 | 73 | 21 | 2.0 | 4.0 | 0.00 | 0.02 | 0.00 | 52 | 991.6 |
| 20260905124708 | 73 | 5 | 2.0 | 4.0 | 0.00 | 0.02 | 0.00 | 52 | 991.6 |
| 20260905124208 | 73 | 22 | 1.0 | 4.0 | 0.00 | 0.02 | 0.00 | 52 | 991.5 |
| 20260905123704 | 73 | 17 | 0.0 | 3.0 | 0.00 | 0.02 | 0.00 | 52 | 991.4 |
| 20260905123204 | 73 | 17 | 1.0 | 3.0 | 0.00 | 0.02 | 0.00 | 52 | 991.1 |
| 20260905122704 | 73 | 17 | 1.0 | 3.0 | 0.00 | 0.02 | 0.00 | 52 | 991.2 |
| 20260905122202 | 73 | 17 | 1.0 | 3.0 | 0.00 | 0.02 | 0.00 | 52 | 991.1 |
| 20260905121702 | 72 | 5 | 1.0 | 4.0 | 0.00 | 0.02 | 0.00 | 52 | 991.0 |
| 20260905121200 | 73 | 324 | 2.0 | 4.0 | 0.00 | 0.02 | 0.00 | 52 | 991.1 |
| 20260905120700 | 73 | 5 | 1.0 | 4.0 | 0.00 | 0.02 | 0.00 | 52 | 991.1 |
| 20260905120200 | 73 | 0 | 1.0 | 4.0 | 0.00 | 0.02 | 0.00 | 52 | 991.1 |
| 20260905115658 | 73 | 5 | 1.0 | 4.0 | 0.00 | 0.02 | 0.00 | 51 | 991.2 |
| 20260905115158 | 73 | 346 | 2.0 | 4.0 | 0.00 | 0.02 | 0.00 | 51 | 991.1 |
| 20260905114658 | 73 | 14 | 2.0 | 6.0 | 0.00 | 0.02 | 0.00 | 51 | 991.2 |
| 20260905113655 | 73 | 9 | 2.0 | 4.0 | 0.00 | 0.02 | 0.00 | 51 | 991.0 |
| 20260905113157 | 73 | 355 | 2.0 | 4.0 | 0.00 | 0.02 | 0.00 | 51 | 990.8 |
| 20260905112655 | 73 | 13 | 1.0 | 4.0 | 0.00 | 0.02 | 0.00 | 50 | 990.8 |
| 20260905112149 | 73 | 5 | 2.0 | 4.0 | 0.00 | 0.02 | 0.00 | 50 | 990.6 |
| 20260905111643 | 73 | 338 | 2.0 | 4.0 | 0.00 | 0.02 | 0.00 | 50 | 990.5 |
| 20260905111138 | 73 | 0 | 1.0 | 4.0 | 0.00 | 0.02 | 0.00 | 50 | 990.5 |
| 20260905110631 | 73 | 340 | 1.0 | 3.0 | 0.00 | 0.02 | 0.00 | 49 | 990.4 |
| 20260905110125 | 73 | 355 | 1.0 | 4.0 | 0.00 | 0.02 | 0.00 | 48 | 990.4 |
| 20260905104607 | 73 | 26 | 2.0 | 6.0 | 0.00 | 0.02 | 0.00 | 47 | 990.4 |
| 20260905103555 | 74 | 5 | 2.0 | 5.0 | 0.00 | 0.02 | 0.00 | 46 | 990.3 |
| 20260905103048 | 74 | 19 | 1.0 | 4.0 | 0.00 | 0.02 | 0.00 | 46 | 990.1 |
| 20260905102540 | 74 | 0 | 1.0 | 4.0 | 0.00 | 0.02 | 0.00 | 46 | 990.2 |
| 20260905102035 | 74 | 26 | 0.0 | 1.0 | 0.00 | 0.02 | 0.00 | 46 | 990.1 |
| 20260905100518 | 74 | 26 | 0.0 | 1.0 | 0.00 | 0.02 | 0.00 | 46 | 990.0 |
| 20260905100012 | 74 | 26 | 0.0 | 1.0 | 0.00 | 0.02 | 0.00 | 46 | 990.0 |
| 20260905095505 | 74 | 26 | 0.0 | 2.0 | 0.00 | 0.02 | 0.00 | 46 | 990.2 |
| 20260905094958 | 74 | 26 | 0.0 | 2.0 | 0.00 | 0.02 | 0.00 | 46 | 990.2 |
| 20260905094454 | 74 | 27 | 0.0 | 2.0 | 0.00 | 0.02 | 0.00 | 46 | 990.2 |
| 20260905093947 | 74 | 27 | 0.0 | 2.0 | 0.00 | 0.02 | 0.00 | 46 | 990.2 |
| 20260905093442 | 74 | 27 | 0.0 | 1.0 | 0.00 | 0.02 | 0.00 | 46 | 990.2 |
| 20260905092935 | 74 | 27 | 0.0 | 1.0 | 0.00 | 0.02 | 0.00 | 46 | 990.2 |
| 20260905092429 | 74 | 27 | 0.0 | 2.0 | 0.00 | 0.02 | 0.00 | 46 | 990.3 |
| 20260905091924 | 74 | 27 | 0.0 | 2.0 | 0.00 | 0.02 | 0.00 | 46 | 990.3 |
| 20260905091418 | 74 | 27 | 0.0 | 1.0 | 0.00 | 0.02 | 0.00 | 46 | 990.3 |